Flag for Switzerland Weather past 2 weeks in Yverdon-les-Bains, Vaud, Switzerland

Now
62 °F

Cool.


Feels Like: 62 °F
Forecast: 42 / 68 °F
Wind: 7 mph from Northeast

Location: Payerne

Current Time: Sep 1, 2014 at 2:04:04 PM

Latest Report: Sep 1, 2014 at 1:00 PM


Visibility: N/A

Pressure: 30.11 "Hg

Humidity: 66%

Dew point: 51 °F

Location of Yverdon-les-BainsLocation

Historic Weather in Yverdon-les-Bains — Graph

°F

Yverdon-les-Bains temperature yesterday

Maximum temperature yesterday: 68 °F (at 12:00 PM)
Minimum temperature yesterday: 56 °F (at 4:00 AM)
Average temperature yesterday: 60 °F

Past Weeks' High & Low Weather Summary

 TemperatureHumidityPressure
High77 °F (Aug 28, 5:00 PM)98% (Aug 25, 11:00 PM)30.18 "Hg (Aug 25, 11:00 PM)
Low47 °F (Aug 25, 4:00 AM)35% (Aug 17, 4:00 PM)29.80 "Hg (Aug 26, 4:00 PM)
Average61 °F75%30.01 "Hg
* Reported Aug 17 12:00 Noon — Sep 1 12:00 Noon, Yverdon-les-Bains, Weather by CustomWeather, © 2014

Note: Actual official high and low records may vary slightly from our data, if they occured in-between our weather recording intervals... More about our weather records

Advertising

Yverdon-les-Bains weather history for previous 24 hours

 ConditionsComfort  
Time TempWeatherWind HumidityBarometerVisibility
12:00 PM
Sep 1
61 °FCool.6 mph72%30.11 "HgN/A
11:00 AM58 °FPartly sunny.8 mph75%30.11 "Hg22 mi
10:00 AM57 °FCool.2 mph78%30.10 "HgN/A
9:00 AM53 °FCool.1 mph94%30.12 "HgN/A
8:00 AM51 °FScattered clouds.2 mph97%30.11 "Hg19 mi
7:00 AM50 °FCool.3 mph97%30.10 "HgN/A
6:00 AM53 °FCool.2 mph93%30.09 "HgN/A
5:00 AM53 °FCool.2 mph96%30.09 "HgN/A
4:00 AM54 °FCool.3 mph94%30.09 "HgN/A
3:00 AM54 °FCool.3 mph93%30.09 "HgN/A
2:00 AM54 °FLight rain. Overcast.3 mph93%30.09 "Hg10 mi
1:00 AM55 °FCool.3 mph83%30.07 "HgN/A
12:00 AM54 °FCool.3 mph80%30.08 "HgN/A
10:00 PM
Aug 31
57 °FCool.1 mph86%30.07 "HgN/A
9:00 PM57 °FCool.1 mph92%30.06 "HgN/A
8:00 PM58 °FLight rain. Overcast.5 mph89%30.04 "Hg15 mi
7:00 PM59 °FCool.3 mph82%30.03 "HgN/A
6:00 PM63 °FMild.5 mph62%30.00 "HgN/A
5:00 PM64 °FMild.7 mph62%30.00 "HgN/A
4:00 PM64 °FMild.6 mph61%30.00 "HgN/A
3:00 PM64 °FMild.8 mph64%30.01 "HgN/A
2:00 PM64 °FOvercast.7 mph65%30.02 "Hg11 mi
Weather by CustomWeather, © 2014

See weather overviewHow to use our weather pages